Tracking 19146 objects as of 24-Apr-2018
HD Live streaming from Space Station
objects crossing your sky now

THORAD AGENA D DEB

Track THORAD AGENA D DEB now!
10-day predictions


NORAD ID: 4935
Int'l Code: 1970-025GB
Perigee: 912.5 km
Apogee: 1,006.9 km
Inclination: 99.8 °
Period: 104.1 minutes
Semi major axis: 7330 km
RCS: 0.0346 m2 (small)
Launch date: April 8, 1970
Source: United States (US)
Launch site: AIR FORCE WESTERN TEST RANGE (AFWTR)

Note: This is SATELLITE DEBRIS
aabbcc
Your satellite tracking list
Your tracking list is empty




NASA's NSSDC Master Catalog

Two Line Element Set (TLE):
1 04935U 70025GB  18113.72389507  .00000247  00000-0  26571-3 0  9997
2 04935  99.8395  47.0287 0064379 238.1666 192.2351 13.83195432405635
Source of the keplerian elements: AFSPC